Total_Precipitation_Accumulation
0.49 0.44 0.39 0.38 0.38 0.36 0.36 0.42 0.60 0.77 0.92 1.02 1.16 1.41 1.57 1.67 1.66 1.67 1.72 1.63 1.44 1.53 1.64 1.61 1.83 1.90 1.89 1.90 1.84 1.96 2.00 1.75 1.59 1.90 1.86 1.46 1.18 1.07 1.12 1.19 1.21 1.29 1.32
0.41 0.40 0.33 0.31 0.29 0.26 0.29 0.36 0.51 0.75 0.98 1.19 1.36 1.55 1.87 2.04 2.04 2.11 2.03 1.97 1.86 1.88 1.80 1.87 2.09 2.15 2.26 2.35 2.20 2.33 2.42 2.12 1.83 2.24 2.68 2.22 1.80 1.21 0.98 1.10 1.22 1.36 1.43
0.34 0.36 0.32 0.27 0.22 0.21 0.23 0.29 0.42 0.65 0.94 1.24 1.49 1.69 1.93 2.19 2.28 2.18 2.14 2.16 2.23 2.27 2.15 2.11 2.23 2.25 2.34 2.54 2.59 2.54 2.66 2.59 2.25 2.21 2.66 2.58 2.25 1.81 1.24 1.11 1.20 1.36 1.48
0.32 0.32 0.31 0.31 0.24 0.24 0.25 0.28 0.42 0.58 0.78 1.03 1.36 1.61 1.87 2.18 2.26 2.24 2.22 2.27 2.36 2.43 2.38 2.33 2.39 2.40 2.36 2.49 2.58 2.56 2.79 2.99 2.73 2.45 2.20 2.13 2.17 2.19 1.77 1.34 1.26 1.42 1.49
0.34 0.32 0.31 0.31 0.32 0.30 0.31 0.38 0.50 0.63 0.80 1.02 1.34 1.66 1.84 2.01 2.21 2.24 2.15 2.10 2.17 2.17 2.13 2.25 2.40 2.42 2.39 2.40 2.59 2.71 2.90 2.91 2.83 2.69 2.54 2.36 2.17 1.85 1.95 1.82 1.58 1.56 1.47
0.33 0.36 0.41 0.42 0.40 0.42 0.45 0.53 0.64 0.82 0.95 1.02 1.15 1.32 1.52 1.80 1.93 2.04 2.08 2.11 2.12 1.99 1.91 2.00 2.10 2.19 2.24 2.22 2.29 2.44 2.60 2.78 2.93 2.86 2.68 2.58 2.47 2.29 2.18 1.90 1.75 1.82 1.64
0.44 0.51 0.61 0.57 0.54 0.56 0.65 0.71 0.79 0.85 0.88 0.86 0.91 1.02 1.19 1.40 1.54 1.62 1.82 1.90 1.95 1.91 1.86 1.83 1.89 1.96 2.00 2.10 2.27 2.27 2.31 2.49 2.69 2.70 2.63 2.62 2.42 2.35 2.40 2.21 1.88 1.79 1.67
0.57 0.69 0.81 0.83 0.78 0.78 0.78 0.76 0.78 0.74 0.72 0.73 0.79 0.84 0.90 1.04 1.16 1.23 1.38 1.52 1.52 1.50 1.50 1.57 1.66 1.80 1.89 1.99 2.13 2.18 2.14 2.23 2.29 2.31 2.45 2.53 2.41 2.22 2.16 2.20 2.28 2.04 1.79
0.72 0.87 1.01 1.07 0.99 0.92 0.86 0.83 0.83 0.78 0.69 0.69 0.76 0.81 0.85 0.85 0.88 0.93 0.92 1.00 1.08 1.12 1.17 1.25 1.39 1.58 1.71 1.77 1.87 2.01 2.01 2.06 2.06 2.13 2.20 2.22 2.27 2.13 1.96 1.92 2.03 2.17 1.97
0.93 1.05 1.13 1.12 1.10 1.13 1.09 0.91 0.84 0.84 0.77 0.84 0.84 0.79 0.77 0.74 0.73 0.77 0.81 0.83 0.92 1.01 1.11 1.14 1.21 1.34 1.44 1.53 1.70 1.84 1.91 1.94 1.92 1.91 1.98 2.03 2.08 2.08 2.04 2.01 2.01 2.00 1.95
1.13 1.14 1.21 1.16 1.03 1.04 1.02 0.99 0.93 0.87 0.88 0.90 0.90 0.79 0.76 0.77 0.76 0.72 0.75 0.83 0.92 1.01 1.07 1.12 1.16 1.19 1.28 1.33 1.44 1.59 1.73 1.76 1.78 1.68 1.71 1.82 1.88 2.04 2.08 2.03 1.99 1.99 1.91
1.08 1.11 1.18 1.11 0.96 0.92 0.81 0.84 0.92 0.92 0.98 0.98 0.89 0.80 0.78 0.81 0.86 0.84 0.78 0.81 0.86 0.87 0.98 1.11 1.10 1.09 1.14 1.22 1.33 1.43 1.48 1.58 1.56 1.47 1.49 1.59 1.65 1.79 1.91 2.01 1.92 1.93 1.89
0.86 0.85 0.88 0.95 0.91 0.87 0.77 0.83 0.89 0.95 0.96 0.98 0.95 0.84 0.72 0.75 0.80 0.81 0.73 0.71 0.76 0.81 0.94 1.08 1.21 1.13 1.02 1.12 1.22 1.26 1.28 1.29 1.25 1.24 1.29 1.34 1.40 1.53 1.64 1.75 1.84 1.86 1.79
0.63 0.62 0.59 0.66 0.69 0.71 0.75 0.80 0.90 1.03 1.05 1.03 0.95 0.89 0.82 0.83 0.78 0.69 0.66 0.67 0.66 0.64 0.71 0.86 0.98 1.04 1.00 0.97 0.97 1.01 1.16 1.15 1.07 0.99 0.99 1.02 1.05 1.17 1.30 1.41 1.56 1.72 1.85
0.47 0.47 0.44 0.45 0.48 0.51 0.59 0.66 0.77 0.94 1.05 1.10 1.05 0.94 0.86 0.77 0.69 0.63 0.55 0.56 0.51 0.51 0.58 0.75 0.92 0.99 0.99 1.01 1.01 0.94 0.97 1.04 1.05 0.99 0.89 0.82 0.82 0.92 1.01 1.11 1.36 1.57 1.73
0.33 0.33 0.35 0.34 0.38 0.43 0.51 0.50 0.60 0.76 0.86 0.91 0.92 0.93 0.87 0.69 0.61 0.54 0.47 0.45 0.45 0.46 0.49 0.59 0.76 0.91 0.89 1.04 1.08 1.00 0.92 0.93 0.94 0.94 0.93 0.92 0.87 0.76 0.72 0.79 0.96 1.20 1.40
0.29 0.27 0.27 0.30 0.35 0.44 0.48 0.50 0.58 0.69 0.70 0.74 0.75 0.77 0.73 0.58 0.52 0.41 0.37 0.40 0.41 0.44 0.45 0.52 0.65 0.79 0.93 0.96 0.85 0.93 0.94 0.91 0.92 0.90 0.89 0.92 0.92 0.96 0.86 0.79 0.78 0.82 0.99
0.22 0.27 0.25 0.24 0.27 0.35 0.45 0.56 0.58 0.57 0.56 0.59 0.61 0.58 0.57 0.52 0.45 0.36 0.33 0.35 0.38 0.43 0.45 0.48 0.53 0.60 0.79 0.84 0.74 0.92 0.95 0.96 0.96 0.95 0.97 1.01 1.04 1.00 1.11 1.08 0.99 0.92 0.90
0.14 0.18 0.18 0.17 0.18 0.20 0.23 0.28 0.30 0.31 0.32 0.41 0.48 0.51 0.50 0.45 0.40 0.35 0.40 0.44 0.44 0.44 0.42 0.42 0.44 0.47 0.56 0.65 0.63 0.77 0.91 1.01 1.01 0.91 0.92 0.98 1.01 1.20 1.24 1.16 1.13 1.06 0.99
0.07 0.10 0.13 0.12 0.12 0.12 0.13 0.13 0.15 0.19 0.22 0.28 0.34 0.40 0.44 0.45 0.47 0.55 0.62 0.61 0.56 0.50 0.44 0.40 0.39 0.42 0.45 0.57 0.47 0.59 0.77 0.94 1.06 0.99 0.93 1.09 1.06 1.07 1.03 0.99 1.18 1.16 1.05
0.06 0.07 0.09 0.10 0.10 0.10 0.09 0.10 0.11 0.11 0.11 0.14 0.19 0.29 0.43 0.49 0.55 0.65 0.66 0.64 0.57 0.47 0.42 0.39 0.37 0.38 0.46 0.61 0.55 0.62 0.73 0.86 0.96 0.98 0.99 0.96 1.05 0.88 0.84 0.88 1.04 1.19 1.12
0.06 0.06 0.07 0.08 0.10 0.11 0.09 0.09 0.14 0.12 0.10 0.12 0.17 0.24 0.33 0.43 0.57 0.65 0.62 0.60 0.58 0.51 0.46 0.46 0.42 0.44 0.54 0.61 0.62 0.63 0.70 0.78 0.86 0.86 0.78 0.76 0.84 0.70 0.65 0.64 0.78 0.96 0.98
0.06 0.07 0.07 0.08 0.08 0.09 0.09 0.09 0.10 0.11 0.10 0.11 0.12 0.14 0.21 0.33 0.48 0.54 0.55 0.56 0.56 0.54 0.49 0.45 0.42 0.41 0.48 0.58 0.70 0.62 0.55 0.55 0.63 0.67 0.65 0.58 0.55 0.55 0.51 0.54 0.64 0.70 0.84
0.05 0.05 0.06 0.06 0.07 0.07 0.08 0.10 0.11 0.10 0.09 0.10 0.11 0.10 0.10 0.12 0.19 0.26 0.34 0.40 0.44 0.44 0.42 0.41 0.43 0.45 0.45 0.45 0.51 0.53 0.50 0.46 0.47 0.46 0.38 0.37 0.40 0.46 0.48 0.49 0.51 0.57 0.78
0.06 0.05 0.06 0.07 0.06 0.07 0.07 0.09 0.10 0.10 0.10 0.10 0.09 0.09 0.11 0.13 0.12 0.14 0.18 0.22 0.25 0.32 0.38 0.39 0.40 0.39 0.42 0.41 0.45 0.46 0.47 0.52 0.56 0.58 0.50 0.43 0.42 0.42 0.46 0.49 0.54 0.66 0.77
0.05 0.06 0.07 0.08 0.07 0.07 0.08 0.08 0.08 0.09 0.10 0.11 0.10 0.08 0.08 0.10 0.11 0.12 0.13 0.15 0.15 0.18 0.20 0.22 0.23 0.23 0.28 0.35 0.37 0.40 0.42 0.44 0.52 0.58 0.60 0.59 0.59 0.58 0.57 0.56 0.53 0.54 0.62